Regional Weather Roundup
Issued by NWS

Home | Current Version | Previous Version | Graphics & Text | Print | Product List | Glossary On
Versions: 1 2 3 4 5 6 7 8 9 10 11 12 13 14 15 16 17 18 19 20 21 22 23 24 25 26 27 28 29 30 31 32 33 34 35 36 37 38 39 40 41 42 43 44 45 46 47 48 49 50
000
ASUS43 KLMK 281210
RWRKY
KENTUCKY REGIONAL WEATHER ROUNDUP
NATIONAL WEATHER SERVICE LOUISVILLE KY
800 AM EDT MON JUL 28 2014

NOTE "FAIR" INDICATES FEW OR NO CLOUDS BELOW 12,000 FEET
WITH NO SIGNIFICANT WEATHER AND/OR OBSTRUCTIONS TO VISIBILITY.

KYZ001>023-026-027-061>063-070>075-281300-
WESTERN AND SOUTH CENTRAL KENTUCKY

CITY           SKY/WX    TMP DP  RH WIND       PRES   REMARKS
PADUCAH        SUNNY     68  60  75 W6        30.02R
HENDERSON      SUNNY     64  59  82 W5        29.99R
OWENSBORO      SUNNY     65  60  83 W8        29.99R
HOPKINSVILLE   SUNNY     67  60  77 W8        30.01R
BOWLING GREEN  SUNNY     68  59  73 W5        29.98R
GLASGOW        SUNNY     65  59  80 W3        29.97R
$$

KYZ024-025-028>034-038-045-046-053-281300-
NORTH CENTRAL KENTUCKY

CITY           SKY/WX    TMP DP  RH WIND       PRES   REMARKS
LOUISVILLE/SDF MOSUNNY   66  60  81 NW8       29.94R
LOUISVILLE/LOU SUNNY     67  60  78 NW7       29.94R
FORT KNOX      SUNNY     65  61  87 W6        29.95R
$$

KYZ035>037-039>044-047>052-055>060-089>105-281300-
NORTHEAST KENTUCKY

CITY           SKY/WX    TMP DP  RH WIND       PRES   REMARKS
LEXINGTON      SUNNY     66  59  78 W12       29.93R
COVINGTON      PTSUNNY   63  59  87 W12       29.90R
FRANKFORT      SUNNY     65  59  81 NW7       29.92R
$$

KYZ054-064>069-076>088-106>120-281300-
SOUTHEAST KENTUCKY

CITY           SKY/WX    TMP DP  RH WIND       PRES   REMARKS
JACKSON        SUNNY     65  60  84 VRB7      29.92R
LONDON         SUNNY     67  59  75 W7        29.94R
SOMERSET       SUNNY     64  63  94 W8        29.96R
MIDDLESBORO    CLOUDY    65  65 100 CALM      29.94S
MONTICELLO     SUNNY     66  62  87 CALM      29.97R
$$




USA.gov is the U.S. government's official web portal to all federal, state and local government web resources and services.